Location: Hac?musa Deresi
(39.1694°N, 32.2508°E)
Time: 11:29:18
(UTC+00:00)

SPOT 5 - Pass Details

Date: 22 April 2026
Orbit: 618 x 803 km, 98.0° (Epoch: 12 May)

Event Time Altitude Azimuth Distance (km) Brightness Sun altitude
Exits shadow 17:40:34 - 171° (S) 2,785 5.6 -12.6°
Reaches altitude 10° 17:42:15 10° 173° (S) 2,097 4.9 -12.8°
Maximum altitude 17:46:47 72° 258° (WSW) 686 2.9 -13.6°
Drops below altitude 10° 17:51:11 10° 343° (NNW) 2,024 5.9 -14.4°
Sets 17:53:21 0° 346° (NNW) 2,921 6.7 -14.7°
